Regional Weather Roundup
Issued by NWS Newport/Morehead, NC

Current Version | Previous Version | Graphics & Text | Print | Product List | Glossary On
Versions: 1 2 3 4 5 6 7 8 9 10 11 12 13 14 15 16 17 18 19 20 21 22 23 24 25 26 27 28 29 30 31 32 33 34 35 36 37 38 39 40 41 42 43 44 45 46 47 48 49 50
601 ASUS42 KMHX 250014 RWRMHX WEATHER ROUNDUP FOR EASTERN NORTH CAROLINA NATIONAL WEATHER SERVICE NEWPORT/MOREHEAD CITY NC 800 PM EDT WED MAY 24 2017 NOTE: "FAIR" INDICATES FEW OR NO CLOUDS BELOW 12,000 FEET WITH NO SIGNIFICANT WEATHER AND/OR OBSTRUCTIONS TO VISIBILITY NCZ015>017-031-032-045>047-102-103-250100- NORTH COAST CITY SKY/WX TMP DP RH WIND PRES REMARKS EDENTON CLOUDY 67 64 89 E15 29.68S ELIZABETH CITY CLOUDY 63 61 93 E16 29.70F KITTY HAWK CLOUDY 63 63 99 E6 29.69F MANTEO CLOUDY 64 61 92 E12 29.70F $$ NCZ045>047-081-094-103-104-250100- CENTRAL COAST CITY SKY/WX TMP DP RH WIND PRES REMARKS FRISCO NOT AVBL $$ NCZ095-097-098-100-101-250100- SOUTHERN COAST CITY SKY/WX TMP DP RH WIND PRES REMARKS BEAUFORT LGT RAIN 74 70 87 SW21G26 29.68R CEDAR ISLAND NOT AVBL JACKSONVILLE CLOUDY 71 70 96 S9 29.62F PINEY ISLAND LGT RAIN N/A N/A N/A SW8 29.68R WILMINGTON CLOUDY 71 68 90 S12 29.63S $$ NCZ011>013-027>030-043-044-078>080-089-090>093-098-250100- COASTAL PLAIN CITY SKY/WX TMP DP RH WIND PRES REMARKS AHOSKIE LGT RAIN 66 64 93 E7 29.64F CLINTON MOCLDY 73 70 91 S7 29.59F ELIZABETHTOWN CLOUDY 73 67 81 S9 29.59F GOLDSBORO CLOUDY 75 73 95 S10G17 29.59S GREENVILLE CLOUDY 73 72 94 S10 29.65R FOG HAVELOCK RAIN 72 68 87 S10 29.67F FOG KENANSVILLE CLOUDY 73 66 78 S6 29.61F KINSTON LGT RAIN 75 68 78 S14G21 29.61R NEW BERN LGT RAIN 71 69 93 S13G22 29.66F RICHLANDS CLOUDY 71 69 93 S8 29.63F ROCKY MOUNT CLOUDY 69 69 100 SE5 29.60S WASHINGTON CLOUDY 74 71 88 S5 29.63S WHITEVILLE CLOUDY 73 66 80 SE9 29.59S $$ AMZ130-135-150-152-154-156-158-170-250-252-270-ANZ085-086-088-633-658-670-250100- MARINE OBSERVATIONS STATION/POSITION TIME TEMP WIND PRES WAVE SWELL AIR SEA DIR/SP/G HT/PER HT/PER (UTC) (F) (DEG/KT/KT) (MB) (FT/S) (FT/S) CHESAPEAKE LIGHT NOT AVBL 64 E VA BEACH 2350 63 65 70/ 12/ 14 1007.0 4/ 8 3/ 8 DUCK 2348 62 65 80/ 16/ 18 1005.5 2 E DUCK 0000 65 N/A 4/ 6 OREGON INLET 2348 60/ 7/ 13 1005.6 13E OREGON INLT 2348 66 N/A 4/ 8 3/ 8 HATTERAS CG 2348 75 74 210/ 8/ 11 1005.6 DIAMOND BUOY 2350 77 75 200/ 14/ 21 1005.2 4/ 7 3/ 7 CAPE LOOKOUT 0000 73 220/ 12/ 18 1005.3 BEAUFORT LAB 2348 74 72 220/ 10/ 17 1004.5 30 SE NEW RVR IN 2308 74 76 240/ 21/ 27 1005.2 30 SE NEW RVR IN 2343 76 N/A 7/ 8 27 SE WRIGHTSVLE 2308 74 76 200/ 17/ 25 1003.9 5 SE WRIGHTSVLE 2308 74 75 170/ 10/ 17 1003.4 225 S CAPE HAT 2350 78 77 180/ 17/ 21 1009.5 8/ 8 41 SE CHARLESTON 0000 76 76 180/ 19/ 23 1001.9 $$

USA.gov is the U.S. government's official web portal to all federal, state and local government web resources and services.